FW5161 Weather Reports


Display with metric or nautical units.
time (UTC)temp
F
wind
direction
speed
MPH
gust
MPH
rain 1hr
in
rain 24hr
in
rain mn
in
humidity
%
barometer
mb
20260905055257 59 109 1.0 3.0 0.00 0.00 0.00 85 1015.4
20260905054751 58 109 1.0 2.0 0.00 0.00 0.00 83 1015.3
20260905054252 58 109 1.0 3.0 0.00 0.00 0.00 83 1015.4
20260905053751 58 109 1.0 3.0 0.00 0.00 0.00 83 1015.2
20260905053251 59 109 1.0 3.0 0.00 0.00 0.00 83 1015.1
20260905052751 59 110 1.0 3.0 0.00 0.00 0.00 83 1015.3
20260905052527 59 110 2.0 3.0 0.00 0.00 0.00 82 1015.2
20260905052021 59 110 2.0 4.0 0.00 0.00 0.00 83 1015.2
20260905051247 59 110 2.0 4.0 0.00 0.00 0.00 83 1015.2
20260905050747 58 110 2.0 3.0 0.00 0.00 0.00 83 1015.2
20260905050247 58 110 2.0 3.0 0.00 0.00 0.00 83 1015.3
20260905045748 58 110 2.0 3.0 0.00 0.00 0.00 83 1015.2
20260905045519 58 110 2.0 4.0 0.00 0.00 0.00 82 1015.2
20260905044744 58 110 2.0 4.0 0.00 0.00 0.00 83 1015.2
20260905044245 58 110 2.0 3.0 0.00 0.00 0.00 83 1015.3
20260905043745 58 110 2.0 3.0 0.00 0.00 0.00 83 1015.2
20260905043246 58 110 2.0 3.0 0.00 0.00 0.00 83 1015.2
20260905042746 58 110 2.0 3.0 0.00 0.00 0.00 83 1015.2
20260905042245 58 110 2.0 4.0 0.00 0.00 0.00 82 1015.2
20260905041745 58 110 2.0 4.0 0.00 0.00 0.00 83 1015.1
20260905041245 58 110 2.0 3.0 0.00 0.00 0.00 84 1015.2
20260905041017 58 110 1.0 3.0 0.00 0.00 0.00 85 1015.3
20260905040245 58 108 1.0 3.0 0.00 0.00 0.00 85 1015.3
20260905035743 58 108 1.0 4.0 0.00 0.00 0.00 85 1015.2
20260905035518 58 108 2.0 4.0 0.00 0.00 0.00 85 1015.2
20260905034243 58 108 2.0 4.0 0.00 0.00 0.00 85 1015.1
20260905034014 57 108 2.0 4.0 0.00 0.00 0.00 84 1015.1
20260905033512 58 108 2.0 3.0 0.00 0.00 0.00 83 1015.0
20260905032744 58 108 1.0 3.0 0.00 0.00 0.00 83 1014.9
20260905032242 58 108 1.0 2.0 0.00 0.00 0.00 83 1014.9
20260905031742 58 108 1.0 2.0 0.00 0.00 0.00 83 1014.8
20260905031243 58 108 1.0 2.0 0.00 0.00 0.00 82 1014.7
20260905030742 58 108 1.0 3.0 0.00 0.00 0.00 82 1014.7
20260905030242 58 108 1.0 3.0 0.00 0.00 0.00 82 1014.7
20260905025743 58 108 2.0 4.0 0.00 0.00 0.00 82 1014.6
20260905025506 58 108 2.0 4.0 0.00 0.00 0.00 81 1014.6
20260905024740 59 108 2.0 5.0 0.00 0.00 0.00 81 1014.6
20260905024506 58 112 2.0 5.0 0.00 0.00 0.00 80 1014.6
20260905023741 59 95 2.0 4.0 0.00 0.00 0.00 80 1014.6
20260905023242 59 95 2.0 5.0 0.00 0.00 0.00 80 1014.7
20260905022737 59 95 2.0 5.0 0.00 0.00 0.00 80 1014.6
20260905022234 59 96 1.0 4.0 0.00 0.00 0.00 80 1014.7
20260905022000 59 97 2.0 4.0 0.00 0.00 0.00 79 1014.7
20260905021233 60 97 2.0 4.0 0.00 0.00 0.00 79 1014.6
20260905020733 60 97 1.0 4.0 0.00 0.00 0.00 79 1014.6
20260905020230 60 97 1.0 4.0 0.00 0.00 0.00 79 1014.6
20260905015730 60 97 0.0 4.0 0.00 0.00 0.00 78 1014.5
20260905015229 60 97 0.0 1.0 0.00 0.00 0.00 77 1014.3
20260905014729 60 97 1.0 4.0 0.00 0.00 0.00 78 1014.3
20260905014229 61 97 1.0 4.0 0.00 0.00 0.00 79 1014.4
20260905013956 61 93 1.0 4.0 0.00 0.00 0.00 79 1014.3
20260905013229 60 99 0.0 3.0 0.00 0.00 0.00 79 1014.4
20260905012730 61 105 0.0 3.0 0.00 0.00 0.00 79 1014.4
20260905012458 60 105 0.0 4.0 0.00 0.00 0.00 79 1014.4
20260905011952 60 105 0.0 4.0 0.00 0.00 0.00 80 1014.4
20260905011228 60 351 1.0 3.0 0.00 0.00 0.00 81 1014.4
20260905010729 60 352 1.0 3.0 0.00 0.00 0.00 81 1014.4
20260905010452 61 60 1.0 3.0 0.00 0.00 0.00 81 1014.5
20260905005729 61 68 1.0 3.0 0.00 0.00 0.00 80 1014.4
20260905005228 61 67 1.0 4.0 0.00 0.00 0.00 80 1014.3
20260905004957 61 63 1.0 5.0 0.00 0.00 0.00 80 1014.3
20260905004229 61 87 1.0 5.0 0.00 0.00 0.00 80 1014.2
20260905003729 61 82 2.0 5.0 0.00 0.00 0.00 80 1014.1
20260905003456 61 68 2.0 5.0 0.00 0.00 0.00 81 1014.1
20260905002732 61 347 2.0 4.0 0.00 0.00 0.00 81 1014.0
20260905002232 61 47 1.0 5.0 0.00 0.00 0.00 79 1014.1
20260905001729 62 53 1.0 5.0 0.00 0.00 0.00 78 1014.0
20260905001229 62 100 1.0 4.0 0.00 0.00 0.00 78 1014.0
20260905000951 62 70 1.0 4.0 0.00 0.00 0.00 76 1013.9
20260905000457 62 330 1.0 4.0 0.00 0.00 0.00 77 1013.9
20260904235722 62 92 1.0 4.0 0.00 0.00 0.00 76 1013.8
20260904235441 62 280 1.0 4.0 0.00 0.00 0.00 75 1013.8
20260904234710 62 275 1.0 4.0 0.00 0.00 0.00 77 1013.8
20260904234210 62 285 1.0 4.0 0.00 0.00 0.00 77 1013.7
20260904233708 62 281 1.0 3.0 0.00 0.00 0.00 76 1013.7
20260904233433 62 222 1.0 3.0 0.00 0.00 0.00 76 1013.6
20260904232708 62 285 1.0 3.0 0.00 0.00 0.00 79 1013.8
20260904232206 61 295 2.0 5.0 0.00 0.00 0.00 79 1013.8
20260904231704 61 295 2.0 5.0 0.00 0.00 0.00 80 1013.7
20260904231201 61 301 1.0 4.0 0.00 0.00 0.00 79 1013.7
20260904230700 61 23 2.0 4.0 0.00 0.00 0.00 78 1013.7
20260904230202 62 116 2.0 4.0 0.00 0.00 0.00 80 1013.8
20260904225701 62 25 1.0 3.0 0.00 0.00 0.00 81 1013.8
20260904225201 62 31 1.0 3.0 0.00 0.00 0.00 81 1013.8
20260904224701 61 315 1.0 4.0 0.00 0.00 0.00 81 1013.8
20260904224201 62 317 2.0 4.0 0.00 0.00 0.00 81 1013.8
20260904223700 62 314 1.0 3.0 0.00 0.00 0.00 81 1013.9
20260904223201 62 312 1.0 4.0 0.00 0.00 0.00 81 1013.8
20260904222701 61 312 1.0 4.0 0.00 0.00 0.00 82 1013.8
20260904222202 61 324 1.0 4.0 0.00 0.00 0.00 82 1013.8
20260904221701 60 322 1.0 4.0 0.00 0.00 0.00 83 1013.8
20260904221157 60 320 1.0 3.0 0.00 0.00 0.00 83 1013.9
20260904220651 61 26 1.0 3.0 0.00 0.00 0.00 82 1013.9
20260904220151 61 245 1.0 3.0 0.00 0.00 0.00 82 1013.9
20260904215650 61 305 1.0 3.0 0.00 0.00 0.00 82 1013.9
20260904215148 61 295 1.0 3.0 0.00 0.00 0.00 82 1013.9
20260904214909 62 295 1.0 5.0 0.00 0.00 0.00 81 1013.9
20260904214143 62 285 2.0 6.0 0.00 0.00 0.00 81 1013.9
20260904213642 62 318 2.0 7.0 0.00 0.00 0.00 81 1013.8
20260904213142 62 290 2.0 7.0 0.00 0.00 0.00 79 1013.8
20260904212641 62 305 2.0 7.0 0.00 0.00 0.00 79 1013.9
20260904212405 63 281 2.0 5.0 0.00 0.00 0.00 78 1013.8
20260904211911 62 316 2.0 4.0 0.00 0.00 0.00 78 1013.7
20260904211137 63 345 2.0 6.0 0.00 0.00 0.00 77 1013.8
20260904210638 63 37 2.0 6.0 0.00 0.00 0.00 77 1013.8
20260904210138 63 290 3.0 7.0 0.00 0.00 0.00 78 1013.7
20260904205638 63 309 3.0 7.0 0.00 0.00 0.00 78 1013.6
20260904205136 63 313 2.0 5.0 0.00 0.00 0.00 78 1013.6
20260904204631 61 306 2.0 5.0 0.00 0.00 0.00 82 1013.7
20260904204400 61 312 2.0 5.0 0.00 0.00 0.00 81 1013.6
20260904203900 61 295 2.0 4.0 0.00 0.00 0.00 81 1013.5
20260904203131 61 303 2.0 7.0 0.00 0.00 0.00 80 1013.4
20260904202631 62 317 2.0 7.0 0.00 0.00 0.00 79 1013.5
20260904202131 62 303 2.0 9.0 0.00 0.00 0.00 79 1013.4
20260904201633 62 339 3.0 9.0 0.00 0.00 0.00 77 1013.4
20260904201131 63 309 2.0 5.0 0.00 0.00 0.00 77 1013.4
20260904200632 62 315 2.0 5.0 0.00 0.00 0.00 81 1013.3
20260904200132 61 285 2.0 5.0 0.00 0.00 0.00 82 1013.4
20260904195632 61 290 3.0 7.0 0.00 0.00 0.00 79 1013.4
20260904195132 61 303 4.0 8.0 0.00 0.00 0.00 78 1013.4
20260904194631 61 314 4.0 8.0 0.00 0.00 0.00 78 1013.5
20260904194132 61 285 3.0 7.0 0.00 0.00 0.00 80 1013.4
20260904193632 62 320 3.0 7.0 0.00 0.00 0.00 79 1013.4
20260904193131 62 332 4.0 7.0 0.00 0.00 0.00 80 1013.5
20260904192629 61 318 3.0 7.0 0.00 0.00 0.00 79 1013.4
20260904192131 63 295 3.0 8.0 0.00 0.00 0.00 79 1013.4
20260904191631 61 321 3.0 8.0 0.00 0.00 0.00 80 1013.4
20260904191125 61 309 3.0 7.0 0.00 0.00 0.00 81 1013.4
20260904190617 60 301 3.0 7.0 0.00 0.00 0.00 81 1013.4
20260904190113 60 312 3.0 5.0 0.00 0.00 0.00 81 1013.4
20260904185606 61 303 3.0 5.0 0.00 0.00 0.00 81 1013.4
20260904185105 60 311 2.0 4.0 0.00 0.00 0.00 81 1013.3
20260904184601 61 316 1.0 4.0 0.00 0.00 0.00 80 1013.2
20260904184102 60 320 1.0 3.0 0.00 0.00 0.00 81 1013.2
20260904183602 60 303 1.0 3.0 0.00 0.00 0.00 83 1013.3
20260904183104 60 316 1.0 3.0 0.00 0.00 0.00 82 1013.3
20260904182602 59 317 2.0 4.0 0.00 0.00 0.00 84 1013.2
20260904182101 59 318 2.0 4.0 0.00 0.00 0.00 84 1013.2
20260904181602 59 304 1.0 4.0 0.00 0.00 0.00 84 1013.2
20260904181101 58 285 1.0 3.0 0.00 0.00 0.00 85 1013.2
20260904180605 58 285 2.0 3.0 0.00 0.00 0.00 85 1013.2
20260904180334 58 276 1.0 3.0 0.00 0.00 0.00 84 1013.1
20260904175604 58 270 1.0 3.0 0.00 0.00 0.00 83 1013.0
20260904175334 57 266 2.0 3.0 0.00 0.00 0.00 82 1013.1
20260904174604 58 268 2.0 4.0 0.00 0.00 0.00 83 1013.2
20260904174104 58 263 2.0 4.0 0.00 0.00 0.00 82 1013.2
20260904173604 58 232 1.0 3.0 0.00 0.00 0.00 83 1013.0
20260904173104 57 184 1.0 2.0 0.00 0.00 0.00 83 1013.0
20260904172555 57 184 1.0 3.0 0.00 0.00 0.00 84 1013.0
20260904172050 57 184 2.0 3.0 0.00 0.00 0.00 83 1012.9
20260904171542 58 184 1.0 3.0 0.00 0.00 0.00 83 1013.0
20260904171037 59 150 0.0 2.0 0.00 0.00 0.00 85 1012.9
20260904170533 59 147 1.0 3.0 0.00 0.00 0.00 86 1012.8
20260904170033 59 147 1.0 3.0 0.00 0.00 0.00 86 1012.6
20260904165533 59 145 0.0 3.0 0.00 0.00 0.00 84 1012.6
20260904165308 59 143 0.0 2.0 0.00 0.00 0.00 85 1012.6
20260904164804 58 142 0.0 1.0 0.00 0.00 0.00 85 1012.6
20260904164032 58 142 1.0 3.0 0.00 0.00 0.00 86 1012.8
20260904163532 58 142 1.0 3.0 0.00 0.00 0.00 84 1012.6
20260904163030 58 139 1.0 3.0 0.00 0.00 0.00 86 1012.5
20260904162529 58 136 1.0 3.0 0.00 0.00 0.00 86 1012.5
20260904162028 58 136 0.0 3.0 0.00 0.00 0.00 85 1012.5
20260904161529 58 133 0.0 0.0 0.00 0.00 0.00 85 1012.4
20260904161029 58 133 0.0 0.0 0.00 0.00 0.00 84 1012.4
20260904160529 58 133 0.0 0.0 0.00 0.00 0.00 84 1012.5
20260904160030 58 134 0.0 0.0 0.00 0.00 0.00 85 1012.4
20260904155529 57 134 0.0 0.0 0.00 0.00 0.00 85 1012.4
20260904155030 57 134 0.0 0.0 0.00 0.00 0.00 84 1012.5
20260904154529 56 134 0.0 0.0 0.00 0.00 0.00 85 1012.5
20260904154035 56 134 0.0 0.0 0.00 0.00 0.00 84 1012.4
20260904153531 56 134 0.0 0.0 0.00 0.00 0.00 84 1012.3
20260904153252 56 133 0.0 0.0 0.00 0.00 0.00 85 1012.3
20260904152746 56 133 0.0 0.0 0.00 0.00 0.00 84 1012.3
20260904152006 57 133 0.0 0.0 0.00 0.00 0.00 85 1012.2
20260904151005 56 133 0.0 0.0 0.00 0.00 0.00 85 1012.2
20260904150740 56 133 0.0 0.0 0.00 0.00 0.00 86 1012.1
20260904150013 55 133 0.0 0.0 0.00 0.00 0.00 86 1012.1
20260904145514 55 133 0.0 0.0 0.00 0.00 0.00 86 1012.0
20260904145010 55 133 0.0 0.0 0.00 0.00 0.00 86 1012.1
20260904144507 55 133 0.0 0.0 0.00 0.00 0.00 86 1012.0
20260904144007 55 133 0.0 0.0 0.00 0.00 0.00 85 1011.9
20260904143505 55 133 0.0 0.0 0.00 0.00 0.00 85 1011.8
20260904143001 56 133 0.0 0.0 0.00 0.00 0.00 86 1011.7
20260904142502 56 133 0.0 0.0 0.00 0.00 0.00 87 1011.7
20260904142001 56 133 0.0 1.0 0.00 0.00 0.00 87 1011.6
20260904141500 56 133 1.0 2.0 0.00 0.00 0.00 86 1011.5
20260904140957 55 133 1.0 3.0 0.00 0.00 0.00 85 1011.4
20260904140456 56 133 1.0 3.0 0.00 0.00 0.00 85 1011.3
20260904135955 56 127 0.0 2.0 0.00 0.00 0.00 84 1011.3
20260904135455 57 126 0.0 0.0 0.00 0.00 0.00 86 1011.2
20260904134953 57 110 0.0 0.0 0.00 0.00 0.00 86 1011.2
20260904134457 56 110 0.0 0.0 0.00 0.00 0.00 87 1011.1
20260904133951 56 110 0.0 0.0 0.00 0.00 0.00 87 1011.2
20260904133450 56 110 0.0 0.0 0.00 0.00 0.00 86 1011.0
20260904132951 57 110 0.0 2.0 0.00 0.00 0.00 87 1011.1
20260904132450 56 110 0.0 2.0 0.00 0.00 0.00 87 1011.2
20260904131950 56 110 0.0 1.0 0.00 0.01 0.00 87 1011.0
20260904130950 56 110 1.0 2.0 0.00 0.01 0.00 87 1011.1
20260904130451 56 110 1.0 3.0 0.00 0.01 0.00 87 1011.1
20260904125952 56 110 2.0 3.0 0.00 0.01 0.00 87 1011.0
20260904125446 56 110 2.0 2.0 0.00 0.01 0.00 87 1010.9
20260904124947 56 110 2.0 3.0 0.00 0.01 0.00 87 1010.9
20260904124447 56 110 1.0 3.0 0.00 0.01 0.00 86 1010.8
20260904123447 56 110 1.0 3.0 0.00 0.01 0.00 86 1010.9
20260904122947 56 110 0.0 0.0 0.00 0.01 0.00 86 1010.8
20260904122446 56 110 0.0 0.0 0.00 0.01 0.00 85 1010.7
20260904121947 56 110 1.0 2.0 0.00 0.01 0.00 85 1010.6
20260904121448 56 110 2.0 4.0 0.00 0.01 0.00 85 1010.5
20260904121211 56 110 2.0 5.0 0.00 0.01 0.00 84 1010.5
20260904120712 56 106 2.0 5.0 0.00 0.01 0.00 84 1010.5
20260904115944 56 97 2.0 4.0 0.00 0.01 0.00 85 1010.5
20260904115444 56 97 1.0 4.0 0.00 0.01 0.00 84 1010.4
20260904114945 56 97 1.0 4.0 0.00 0.01 0.00 84 1010.4
20260904114443 56 95 1.0 4.0 0.00 0.01 0.00 84 1010.3
20260904113943 56 87 1.0 3.0 0.00 0.01 0.00 85 1010.4
20260904113443 56 87 1.0 2.0 0.00 0.01 0.00 84 1010.3
20260904113211 57 87 1.0 3.0 0.00 0.01 0.00 84 1010.3
20260904112438 57 87 1.0 3.0 0.00 0.01 0.00 85 1010.3
20260904111937 56 120 2.0 3.0 0.00 0.01 0.00 85 1010.4
20260904111434 56 120 2.0 3.0 0.00 0.01 0.00 85 1010.4
20260904110933 56 120 3.0 5.0 0.00 0.01 0.00 85 1010.3
20260904110432 56 122 2.0 5.0 0.00 0.01 0.00 85 1010.2
20260904105932 56 153 1.0 3.0 0.00 0.01 0.00 85 1010.1
20260904105431 56 154 1.0 3.0 0.00 0.01 0.00 85 1010.0
20260904104931 57 157 1.0 2.0 0.00 0.01 0.00 84 1010.1
20260904104430 57 158 1.0 3.0 0.00 0.01 0.00 84 1010.1
20260904103929 57 157 2.0 3.0 0.00 0.01 0.00 85 1010.1
20260904103429 57 158 1.0 3.0 0.00 0.01 0.00 85 1010.0
20260904103156 57 158 1.0 3.0 0.00 0.01 0.00 84 1010.0
20260904102430 57 160 1.0 3.0 0.00 0.01 0.00 84 1009.9
20260904101929 57 243 1.0 3.0 0.00 0.01 0.00 84 1010.0
20260904100931 57 145 1.0 3.0 0.00 0.01 0.00 85 1010.0
20260904100649 57 123 1.0 3.0 0.00 0.01 0.00 84 1010.1
20260904095929 56 124 1.0 3.0 0.00 0.01 0.00 84 1010.0
20260904095428 57 124 2.0 3.0 0.00 0.01 0.00 84 1009.9
20260904094929 56 124 1.0 3.0 0.00 0.01 0.00 85 1009.9
20260904094431 56 123 1.0 3.0 0.00 0.01 0.00 85 1009.9
20260904093929 56 123 2.0 3.0 0.00 0.01 0.00 85 1009.9
20260904093430 56 123 2.0 4.0 0.00 0.01 0.00 85 1010.0
20260904092929 56 122 2.0 4.0 0.00 0.01 0.00 84 1010.0
20260904092429 56 117 2.0 6.0 0.00 0.01 0.00 85 1010.1
20260904092157 56 117 2.0 6.0 0.00 0.01 0.00 85 1010.1
20260904091429 56 77 2.0 4.0 0.00 0.01 0.00 85 1010.1
20260904090928 56 76 2.0 3.0 0.00 0.01 0.00 86 1010.1
20260904090431 56 73 1.0 4.0 0.00 0.01 0.00 86 1010.1
20260904085928 56 73 0.0 4.0 0.00 0.01 0.00 86 1010.1
20260904085429 56 83 1.0 3.0 0.00 0.01 0.00 86 1010.0
20260904084928 56 83 2.0 3.0 0.00 0.01 0.00 86 1010.1
20260904084430 56 83 2.0 3.0 0.00 0.01 0.00 86 1010.1
20260904083929 56 83 2.0 3.0 0.00 0.01 0.00 85 1010.1
20260904083429 56 83 2.0 3.0 0.00 0.01 0.00 86 1010.1
20260904082928 56 83 2.0 3.0 0.00 0.01 0.00 85 1010.0
20260904082429 56 83 2.0 3.0 0.00 0.01 0.00 85 1010.1
20260904081929 56 83 1.0 3.0 0.00 0.01 0.00 85 1010.1
20260904081659 56 83 2.0 5.0 0.00 0.01 0.00 85 1010.2
20260904081159 56 84 2.0 5.0 0.00 0.01 0.00 85 1010.2
20260904080429 56 81 2.0 5.0 0.00 0.01 0.00 85 1010.2
20260904080151 56 85 2.0 5.0 0.00 0.01 0.00 85 1010.2
20260904075431 56 95 2.0 5.0 0.00 0.01 0.00 85 1010.3
20260904074930 56 91 2.0 5.0 0.00 0.01 0.00 84 1010.3
20260904074421 56 101 2.0 5.0 0.00 0.01 0.00 85 1010.2
20260904073916 56 61 2.0 3.0 0.00 0.01 0.00 84 1010.1
20260904073409 56 61 2.0 3.0 0.00 0.01 0.00 85 1010.1
20260904073125 56 60 2.0 4.0 0.00 0.01 0.00 85 1010.0
20260904072357 56 60 2.0 4.0 0.00 0.01 0.00 85 1010.0
20260904071852 56 58 2.0 4.0 0.00 0.01 0.00 84 1010.0
20260904071603 56 62 2.0 4.0 0.00 0.01 0.00 84 1010.0
20260904070844 56 54 2.0 3.0 0.00 0.01 0.00 84 1010.0
20260904070344 56 47 1.0 3.0 0.00 0.01 0.00 84 1009.9
20260904065843 56 46 1.0 3.0 0.00 0.01 0.01 84 1009.9
20260904065343 56 46 1.0 3.0 0.00 0.01 0.01 84 1009.9
20260904064843 57 45 1.0 3.0 0.00 0.01 0.01 84 1010.0
20260904064342 57 39 1.0 3.0 0.00 0.01 0.01 84 1010.0
20260904064105 57 70 1.0 3.0 0.00 0.01 0.01 84 1010.0
20260904063337 57 67 1.0 3.0 0.00 0.01 0.01 85 1010.0
20260904062835 57 61 2.0 3.0 0.00 0.01 0.01 84 1010.0
20260904062334 57 61 2.0 3.0 0.00 0.01 0.01 84 1009.9
20260904061835 57 61 1.0 3.0 0.00 0.01 0.01 84 1010.0
20260904061333 57 61 1.0 3.0 0.00 0.01 0.01 84 1009.9
20260904060833 57 60 2.0 3.0 0.00 0.01 0.01 83 1009.9
20260904060333 57 60 2.0 3.0 0.00 0.01 0.01 83 1009.9
20260904055832 57 60 2.0 3.0 0.00 0.01 0.01 83 1009.9